DW8248 Weather Reports


time (UTC)temp
F
wind
direction
speed
knots
gust
knots
rain 1hr
in
rain 24hr
in
rain mn
in
humidity
%
barometer
mb
20171125054850 63 309 4.3 7.8 0.00 0.00 0.00 90 1013.6
20171125053853 63 348 5.2 9.6 0.00 0.00 0.00 90 1013.4
20171125052822 63 344 7.0 9.6 0.00 0.00 0.00 91 1013.4
20171125051748 63 297 5.2 7.8 0.00 0.00 0.00 91 1013.4
20171125050737 63 300 6.1 9.6 0.00 0.00 0.00 91 1013.6
20171125045721 64 295 7.8 10.4 0.00 0.00 0.00 91 1013.7
20171125044744 63 316 7.8 11.3 0.00 0.00 0.00 91 1013.6
20171125043731 64 316 9.6 12.2 0.00 0.00 0.00 91 1013.6
20171125042743 64 316 9.6 13.0 0.00 0.00 0.00 92 1013.7
20171125041737 63 309 10.4 15.6 0.00 0.00 0.00 91 1013.7
20171125040705 64 309 11.3 15.6 0.00 0.00 0.00 91 1013.6
20171125035649 64 320 12.2 14.8 0.00 0.00 0.00 91 1013.5
20171125034708 64 322 11.3 13.9 0.00 0.00 0.00 91 1013.5
20171125033726 64 306 10.4 13.9 0.00 0.00 0.00 91 1013.6
20171125032733 64 312 10.4 13.0 0.00 0.00 0.00 91 1013.6
20171125031730 64 311 9.6 12.2 0.00 0.00 0.00 91 1013.6
20171125030742 64 310 10.4 13.0 0.00 0.00 0.00 91 1013.6
20171125025803 64 311 10.4 13.0 0.00 0.00 0.00 91 1013.6
20171125024742 64 292 8.7 11.3 0.00 0.00 0.00 91 1013.7
20171125023804 64 301 8.7 11.3 0.00 0.00 0.00 91 1013.6
20171125021617 64 317 8.7 10.4 0.00 0.00 0.00 91 1013.5
20171125020616 65 298 7.8 10.4 0.00 0.00 0.00 90 1013.4
20171125015636 65 324 6.1 9.6 0.00 0.00 0.00 90 1013.4
20171125014635 65 316 6.1 11.3 0.00 0.00 0.00 90 1013.3
20171125013604 65 315 7.8 11.3 0.00 0.00 0.00 90 1013.3
20171125012546 65 345 7.8 11.3 0.00 0.00 0.00 90 1013.3
20171125011517 65 0 4.3 7.8 0.00 0.00 0.00 90 1013.3
20171125005356 65 316 7.0 10.4 0.00 0.00 0.00 90 1013.3
20171125004353 65 317 7.0 10.4 0.00 0.00 0.00 90 1013.2
20171125003356 65 322 7.8 9.6 0.00 0.00 0.00 90 1013.1
20171125002326 65 317 7.8 9.6 0.00 0.00 0.00 90 1013.0
20171125001252 65 321 7.0 9.6 0.00 0.00 0.00 90 1012.7
20171125000258 66 302 7.8 10.4 0.00 0.00 0.00 90 1012.7
20171124235238 66 297 7.8 10.4 0.00 0.00 0.00 91 1012.5
20171124233146 66 288 7.0 9.6 0.00 0.00 0.00 91 1012.2
20171124231029 66 292 6.1 7.8 0.00 0.00 0.00 90 1012.0
20171124230042 66 288 6.1 7.8 0.00 0.00 0.00 90 1011.8
20171124223847 66 289 5.2 7.0 0.00 0.00 0.00 90 1011.5
20171124222832 66 303 5.2 7.8 0.00 0.00 0.00 89 1011.4
20171124221806 66 333 7.0 9.6 0.00 0.00 0.00 90 1011.2
20171124220809 66 310 7.8 12.2 0.00 0.00 0.00 90 1011.1
20171124215815 66 324 9.6 12.2 0.00 0.00 0.00 89 1011.1
20171124214810 67 323 7.0 9.6 0.00 0.00 0.00 89 1011.0
20171124213751 66 325 7.8 10.4 0.00 0.00 0.00 89 1010.9
20171124212808 66 311 8.7 12.2 0.00 0.00 0.00 88 1010.8
20171124211812 67 340 8.7 12.2 0.00 0.00 0.00 88 1010.7
20171124205645 67 328 6.1 11.3 0.00 0.00 0.00 87 1010.5
20171124204610 67 337 7.8 11.3 0.00 0.01 0.00 87 1010.3
20171124203604 67 318 7.0 10.4 0.00 0.01 0.00 87 1010.3
20171124202537 67 316 7.0 9.6 0.00 0.01 0.00 88 1010.3
20171124201531 67 288 7.0 8.7 0.00 0.01 0.00 89 1010.3
20171124200554 67 297 7.0 8.7 0.00 0.01 0.00 90 1010.4
20171124195518 66 274 6.1 8.7 0.00 0.01 0.00 90 1010.2
20171124194525 66 300 7.8 10.4 0.00 0.01 0.00 90 1010.2
20171124193512 67 292 10.4 13.0 0.00 0.01 0.00 90 1010.2
20171124191434 67 296 8.7 10.4 0.00 0.01 0.00 88 1010.1
20171124190449 67 289 7.8 10.4 0.00 0.01 0.00 89 1010.1
20171124185446 66 304 8.7 11.3 0.00 0.01 0.00 89 1010.2
20171124184429 66 317 9.6 12.2 0.00 0.01 0.00 89 1010.4
20171124183439 66 302 7.8 13.0 0.00 0.01 0.00 89 1010.3
20171124182446 66 326 7.8 13.0 0.00 0.01 0.00 91 1010.3
20171124181449 66 281 5.2 7.8 0.00 0.01 0.00 93 1010.3
20171124175257 65 270 7.0 8.7 0.00 0.01 0.00 93 1010.4
20171124174303 64 297 9.6 12.2 0.00 0.01 0.00 92 1010.6
20171124173309 65 294 10.4 12.2 0.00 0.01 0.00 91 1010.6
20171124171158 65 302 9.6 12.2 0.00 0.01 0.00 91 1010.7
20171124170140 65 296 10.4 13.0 0.00 0.01 0.00 91 1010.9
20171124165136 65 289 10.4 13.0 0.00 0.01 0.00 92 1010.8
20171124164159 65 283 11.3 13.0 0.00 0.01 0.00 92 1010.7
20171124163158 65 290 11.3 13.9 0.00 0.01 0.00 92 1010.7
20171124162149 65 298 12.2 15.6 0.00 0.01 0.00 92 1010.6
20171124161138 66 294 12.2 15.6 0.00 0.01 0.00 93 1010.5
20171124160123 66 291 11.3 14.8 0.00 0.01 0.00 93 1010.5
20171124155057 66 294 10.4 13.0 0.00 0.01 0.00 93 1010.5
20171124154031 66 305 10.4 13.0 0.00 0.01 0.00 94 1010.4
20171124153041 66 297 9.6 11.3 0.00 0.01 0.00 94 1010.4
20171124152046 66 294 9.6 11.3 0.00 0.01 0.00 95 1010.4
20171124151020 66 288 9.6 12.2 0.00 0.01 0.00 95 1010.3
20171124144901 66 295 9.6 12.2 0.00 0.01 0.00 95 1010.3
20171124143832 66 292 9.6 12.2 0.00 0.01 0.00 95 1010.3
20171124142827 66 283 9.6 12.2 0.00 0.01 0.00 95 1010.3
20171124141807 66 297 10.4 11.3 0.00 0.01 0.00 96 1010.3
20171124140751 67 287 8.7 11.3 0.00 0.01 0.00 95 1010.1
20171124135721 67 281 9.6 12.2 0.00 0.01 0.00 95 1010.0
20171124134715 67 282 9.6 12.2 0.00 0.01 0.00 95 1010.0
20171124133653 67 286 9.6 12.2 0.00 0.01 0.00 96 1009.9
20171124132624 67 292 7.0 11.3 0.00 0.01 0.00 95 1009.7
20171124131636 68 282 7.0 10.4 0.00 0.01 0.00 95 1009.5
20171124130615 68 288 6.1 7.8 0.00 0.01 0.00 95 1009.5
20171124125541 68 296 5.2 7.8 0.00 0.01 0.00 95 1009.4
20171124124601 68 290 4.3 7.0 0.00 0.01 0.00 95 1009.2
20171124123607 68 286 5.2 8.7 0.00 0.01 0.00 95 1009.0
20171124122542 68 302 6.1 8.7 0.00 0.01 0.00 94 1008.7
20171124121551 68 296 4.3 7.0 0.00 0.01 0.00 94 1008.6
20171124120559 68 291 5.2 7.0 0.00 0.01 0.00 95 1008.6
20171124115608 68 286 6.1 7.8 0.00 0.01 0.00 95 1008.5
20171124114619 68 281 6.1 7.8 0.00 0.01 0.00 95 1008.5
20171124113627 68 293 6.1 9.6 0.00 0.01 0.00 95 1008.3
20171124112622 68 298 7.0 9.6 0.00 0.01 0.00 95 1008.3
20171124111559 68 290 5.2 7.0 0.00 0.01 0.00 96 1008.1
20171124110556 68 274 4.3 6.1 0.00 0.01 0.00 96 1008.1
20171124105607 68 252 4.3 6.1 0.00 0.01 0.00 96 1007.9
20171124104547 68 255 4.3 7.8 0.00 0.01 0.00 96 1007.8
20171124103533 68 258 5.2 7.8 0.00 0.01 0.00 96 1007.7
20171124102500 68 263 6.1 7.0 0.00 0.01 0.00 96 1007.5
20171124100325 68 278 5.2 7.0 0.00 0.01 0.00 95 1007.2
20171124095325 68 278 4.3 7.0 0.00 0.01 0.00 95 1007.2
20171124094249 68 275 5.2 7.0 0.00 0.01 0.00 95 1007.2
20171124093309 68 278 4.3 7.0 0.00 0.01 0.00 95 1007.6
20171124092238 68 275 5.2 7.8 0.00 0.01 0.00 95 1007.5
20171124091234 68 274 6.1 8.7 0.00 0.01 0.00 95 1007.5
20171124090226 68 261 5.2 8.7 0.00 0.01 0.00 94 1007.6
20171124085225 69 277 3.5 6.1 0.00 0.01 0.00 94 1007.5
20171124084247 69 240 3.5 7.0 0.00 0.01 0.00 94 1007.5
20171124083214 69 248 3.5 7.0 0.00 0.01 0.00 94 1007.5
20171124082206 69 242 4.3 7.0 0.00 0.01 0.00 94 1007.5
20171124081156 69 227 5.2 7.0 0.00 0.01 0.00 94 1007.6
20171124080157 69 209 4.3 6.1 0.00 0.01 0.00 94 1007.5
20171124074002 69 218 3.5 8.7 0.00 0.01 0.00 93 1007.4
20171124072952 69 236 4.3 8.7 0.00 0.01 0.00 93 1007.5
20171124071954 69 234 3.5 6.1 0.00 0.01 0.00 93 1007.7
20171124071007 69 245 4.3 6.1 0.00 0.01 0.00 93 1008.1
20171124070018 69 229 4.3 6.1 0.00 0.01 0.00 92 1007.9
20171124065036 69 244 2.6 4.3 0.00 0.01 0.00 92 1008.0
20171124064029 69 255 3.5 5.2 0.00 0.01 0.00 92 1008.0
20171124063002 70 250 3.5 5.2 0.00 0.01 0.00 91 1007.8
20171124061931 70 189 5.2 7.0 0.00 0.01 0.00 91 1007.8
20171124060923 70 194 4.3 7.0 0.00 0.01 0.00 91 1007.9
20171124055916 70 173 4.3 7.0 0.00 0.01 0.00 91 1007.7